W8DRH-13 Weather Reports


time (UTC)temp
C
wind
direction
speed
KPH
gust
KPH
rain 1hr
cm
rain 24hr
cm
rain mn
cm
humidity
%
barometer
mb
20260502233610 6 52 0.0 0.0 0.00 0.00 0.00 65 1014.4
20260502233107 6 297 4.8 4.8 0.00 0.00 0.00 63 1014.2
20260502232603 6 319 3.2 4.8 0.00 0.00 0.00 62 1014.5
20260502232100 6 12 0.0 0.0 0.00 0.00 0.00 64 1014.6
20260502231556 6 65 0.0 0.0 0.00 0.00 0.00 66 1014.8
20260502231049 7 81 0.0 0.0 0.00 0.00 0.00 67 1014.5
20260502230547 7 69 0.0 0.0 0.00 0.00 0.00 67 1014.4
20260502230046 7 78 0.0 0.0 0.00 0.00 0.00 67 1014.5
20260502225541 6 31 3.2 3.2 0.00 0.00 0.00 65 1014.8
20260502225038 7 55 0.0 0.0 0.00 0.00 0.00 65 1014.3
20260502224534 7 1 0.0 0.0 0.00 0.00 0.00 64 1014.5
20260502224031 7 330 6.4 6.4 0.00 0.00 0.00 62 1014.4
20260502223529 7 302 0.0 0.0 0.00 0.00 0.00 64 1014.5
20260502223027 7 69 1.6 1.6 0.00 0.00 0.00 67 1014.4
20260502222524 6 309 4.8 6.4 0.00 0.00 0.00 66 1014.5
20260502222020 6 298 6.4 6.4 0.00 0.00 0.00 68 1014.5
20260502221516 6 24 0.0 0.0 0.00 0.00 0.00 70 1014.5
20260502221014 6 59 0.0 0.0 0.00 0.00 0.00 71 1014.5
20260502220509 6 81 0.0 1.6 0.00 0.00 0.00 71 1014.6
20260502220006 6 108 0.0 0.0 0.00 0.00 0.00 72 1014.5
20260502215504 6 123 0.0 0.0 0.00 0.00 0.00 72 1014.4
20260502215000 6 124 0.0 0.0 0.00 0.00 0.00 73 1014.4
20260502214457 6 121 0.0 0.0 0.00 0.00 0.00 73 1014.5
20260502213955 6 99 0.0 0.0 0.00 0.00 0.00 73 1014.5
20260502213451 6 66 0.0 0.0 0.00 0.00 0.00 73 1014.4
20260502212949 6 78 0.0 0.0 0.00 0.00 0.00 72 1014.5
20260502212448 6 77 0.0 0.0 0.00 0.00 0.00 72 1014.4
20260502211945 6 78 0.0 0.0 0.00 0.00 0.00 72 1014.5
20260502211440 6 77 0.0 0.0 0.00 0.00 0.00 73 1014.4
20260502210938 6 77 0.0 0.0 0.00 0.00 0.00 73 1014.4
20260502210434 6 75 0.0 0.0 0.00 0.00 0.00 73 1014.1
20260502205932 6 75 0.0 0.0 0.00 0.00 0.00 73 1014.3
20260502205428 6 123 3.2 3.2 0.00 0.00 0.00 73 1014.3
20260502204925 6 47 0.0 1.6 0.00 0.00 0.00 74 1014.3
20260502204422 6 104 0.0 0.0 0.00 0.00 0.00 74 1014.4
20260502203920 6 57 3.2 4.8 0.00 0.00 0.00 74 1014.5
20260502203417 6 89 0.0 0.0 0.00 0.00 0.00 75 1014.4
20260502202913 6 83 1.6 3.2 0.00 0.00 0.00 76 1014.3
20260502202410 6 83 4.8 9.7 0.00 0.00 0.00 76 1014.4
20260502201908 6 120 0.0 1.6 0.00 0.00 0.00 76 1014.5
20260502201404 5 63 1.6 3.2 0.00 0.00 0.00 76 1014.6
20260502200901 6 100 3.2 4.8 0.00 0.00 0.00 76 1014.8
20260502200356 6 79 3.2 6.4 0.00 0.00 0.00 76 1014.6
20260502195855 6 36 11.3 12.9 0.00 0.00 0.00 75 1014.8
20260502195351 6 86 9.7 12.9 0.00 0.00 0.00 74 1014.6
20260502194848 6 91 4.8 11.3 0.00 0.00 0.00 73 1014.8
20260502194344 6 33 6.4 6.4 0.00 0.00 0.00 71 1014.6
20260502193840 6 30 0.0 0.0 0.00 0.00 0.00 72 1014.8
20260502193338 6 34 0.0 0.0 0.00 0.00 0.00 71 1014.9
20260502192833 6 41 0.0 0.0 0.00 0.00 0.00 70 1014.9
20260502192330 6 59 0.0 0.0 0.00 0.00 0.00 73 1014.9
20260502191827 6 77 0.0 0.0 0.00 0.00 0.00 74 1014.8
20260502191326 6 50 6.4 6.4 0.00 0.00 0.00 73 1015.0
20260502190822 6 61 0.0 0.0 0.00 0.00 0.00 73 1015.1
20260502190319 6 97 1.6 3.2 0.00 0.00 0.00 73 1015.2
20260502185814 6 130 0.0 3.2 0.00 0.00 0.00 75 1015.0
20260502185306 5 44 3.2 3.2 0.00 0.00 0.00 75 1015.2
20260502184802 5 28 6.4 9.7 0.00 0.00 0.00 74 1015.1
20260502184258 5 20 6.4 9.7 0.00 0.00 0.00 77 1015.3
20260502183755 5 57 4.8 6.4 0.00 0.00 0.00 78 1015.1
20260502183251 5 47 3.2 4.8 0.00 0.00 0.00 78 1015.3
20260502182746 6 58 9.7 11.3 0.00 0.00 0.00 76 1015.1
20260502182242 6 27 8.0 11.3 0.00 0.00 0.00 74 1015.0
20260502181738 6 33 6.4 6.4 0.00 0.00 0.00 72 1015.0
20260502181237 6 21 6.4 6.4 0.00 0.00 0.00 72 1015.2
20260502180735 6 355 0.0 0.0 0.00 0.00 0.00 71 1015.3
20260502180232 6 70 0.0 0.0 0.00 0.00 0.00 71 1015.2
20260502170150 5 71 1.6 3.2 0.00 0.00 0.00 80 1015.4
20260502164137 6 350 4.8 4.8 0.00 0.00 0.00 72 1015.5
20260502163633 6 342 4.8 9.7 0.00 0.00 0.00 71 1015.4
20260502163129 6 289 12.9 14.5 0.00 0.00 0.00 71 1015.3
20260502162626 6 337 8.0 12.9 0.00 0.00 0.00 69 1015.6
20260502162123 7 285 11.3 12.9 0.00 0.00 0.00 67 1015.5
20260502161621 7 18 3.2 3.2 0.00 0.00 0.00 70 1015.6
20260502161118 6 331 4.8 4.8 0.00 0.00 0.00 72 1015.4
20260502160616 6 354 0.0 0.0 0.00 0.00 0.00 71 1015.5
20260502160114 6 302 6.4 6.4 0.00 0.00 0.00 71 1015.4
20260502152028 5 306 4.8 4.8 0.00 0.00 0.00 80 1015.5
20260502151525 5 301 6.4 6.4 0.00 0.00 0.00 80 1015.5
20260502151022 5 33 3.2 4.8 0.00 0.00 0.00 81 1015.4
20260502150520 5 280 4.8 4.8 0.00 0.00 0.00 82 1015.3
20260502130405 3 86 0.0 1.6 0.00 0.00 0.00 84 1014.9
20260502123347 2 72 1.6 1.6 0.00 0.00 0.00 84 1014.6
20260502122845 2 107 1.6 3.2 0.00 0.00 0.00 84 1015.0
20260502122340 2 354 4.8 4.8 0.00 0.00 0.00 83 1014.5
20260502121839 2 51 3.2 3.2 0.00 0.00 0.00 84 1014.4
20260502121336 2 289 6.4 11.3 0.00 0.00 0.00 83 1014.4
20260502120833 2 40 1.6 3.2 0.00 0.00 0.00 83 1014.4
20260502120329 2 305 4.8 4.8 0.00 0.00 0.00 83 1014.8
20260502115827 1 301 6.4 6.4 0.00 0.00 0.00 83 1014.3
20260502115324 1 291 6.4 6.4 0.00 0.00 0.00 83 1014.3
20260502114820 1 339 4.8 6.4 0.00 0.00 0.00 83 1014.4
20260502114317 1 307 11.3 12.9 0.00 0.00 0.00 83 1014.5
20260502113814 1 317 6.4 6.4 0.00 0.00 0.00 83 1014.5
20260502113312 1 283 6.4 6.4 0.00 0.00 0.00 84 1014.5
20260502112810 1 301 4.8 4.8 0.00 0.00 0.00 84 1014.3
20260502112307 1 311 4.8 4.8 0.00 0.00 0.00 84 1014.5
20260502111804 1 303 6.4 6.4 0.00 0.00 0.00 84 1014.4
20260502111301 1 297 8.0 9.7 0.00 0.00 0.00 84 1014.3
20260502110759 1 290 6.4 6.4 0.00 0.00 0.00 85 1014.4
20260502110257 1 331 4.8 4.8 0.00 0.00 0.00 85 1014.1
20260502105754 0 283 6.4 9.7 0.00 0.00 0.00 85 1014.1
20260502105250 0 292 6.4 9.7 0.00 0.00 0.00 85 1014.0
20260502104748 0 298 4.8 4.8 0.00 0.00 0.00 86 1014.4
20260502104246 0 289 6.4 6.4 0.00 0.00 0.00 85 1014.2
20260502103743 0 315 3.2 4.8 0.00 0.00 0.00 85 1014.0
20260502103240 1 292 4.8 6.4 0.00 0.00 0.00 85 1014.0
20260502102738 1 292 4.8 4.8 0.00 0.00 0.00 84 1014.2
20260502102233 1 297 6.4 6.4 0.00 0.00 0.00 84 1014.1
20260502101732 1 288 6.4 6.4 0.00 0.00 0.00 84 1014.2
20260502101230 1 294 4.8 4.8 0.00 0.00 0.00 84 1014.1
20260502100727 1 291 6.4 6.4 0.00 0.00 0.00 84 1014.2
20260502100226 1 279 8.0 9.7 0.00 0.00 0.00 84 1014.0
20260502091200 1 312 6.4 6.4 0.00 0.00 0.00 83 1014.0
20260502090657 1 296 3.2 4.8 0.00 0.00 0.00 83 1014.1
20260502090154 1 327 4.8 9.7 0.00 0.00 0.00 83 1014.0
20260502071044 2 292 6.4 9.7 0.00 0.00 0.00 83 1014.0
20260502070542 2 292 6.4 6.4 0.00 0.00 0.00 83 1013.8
20260502070039 2 292 6.4 6.4 0.00 0.00 0.00 83 1013.8
20260502065538 3 284 4.8 4.8 0.00 0.00 0.00 83 1014.1
20260502065035 3 278 4.8 4.8 0.00 0.00 0.00 82 1013.6
20260502064533 3 305 3.2 4.8 0.00 0.00 0.00 82 1013.9
20260502064030 3 311 4.8 4.8 0.00 0.00 0.00 81 1014.0
20260502063528 3 293 6.4 6.4 0.00 0.00 0.00 81 1013.8
20260502063025 3 290 8.0 9.7 0.00 0.00 0.00 80 1013.8
20260502062522 3 294 9.7 11.3 0.00 0.00 0.00 81 1014.1
20260502062021 3 285 9.7 9.7 0.00 0.00 0.00 81 1014.0
20260502061518 3 282 9.7 9.7 0.00 0.00 0.00 81 1014.2
20260502061015 3 306 9.7 11.3 0.00 0.00 0.00 82 1014.1
20260502060509 3 278 4.8 6.4 0.00 0.00 0.00 83 1014.2
20260502060007 3 293 6.4 6.4 0.00 0.00 0.00 83 1014.2
20260502055459 3 299 9.7 11.3 0.00 0.00 0.00 84 1014.2
20260502054958 3 272 6.4 6.4 0.00 0.00 0.00 84 1014.1
20260502054455 3 279 9.7 11.3 0.00 0.00 0.00 85 1013.9
20260502053952 3 289 8.0 9.7 0.00 0.00 0.00 85 1014.1
20260502053449 3 296 6.4 6.4 0.00 0.00 0.00 86 1014.0
20260502052947 4 288 6.4 9.7 0.00 0.00 0.00 88 1014.2
20260502052445 4 303 4.8 6.4 0.00 0.00 0.00 89 1014.2
20260502051944 4 285 6.4 6.4 0.00 0.00 0.00 90 1014.5
20260502051441 4 287 3.2 4.8 0.00 0.00 0.00 90 1014.1
20260502050938 4 266 4.8 4.8 0.00 0.00 0.00 90 1014.2
20260502050435 4 243 6.4 6.4 0.00 0.00 0.00 91 1014.1
20260502045932 4 282 4.8 4.8 0.00 0.00 0.00 92 1014.0
20260502045428 4 260 8.0 9.7 0.00 0.00 0.00 92 1014.2
20260502044925 4 212 3.2 4.8 0.00 0.00 0.00 92 1014.1
20260502044421 4 259 3.2 3.2 0.00 0.00 0.00 91 1014.0
20260502043918 4 243 3.2 3.2 0.00 0.00 0.00 91 1014.2
20260502043416 5 246 3.2 4.8 0.00 0.00 0.00 91 1014.2
20260502042915 5 232 3.2 4.8 0.00 0.00 0.00 91 1014.1
20260502042413 5 277 6.4 6.4 0.00 0.00 0.00 90 1014.0
20260502041910 5 277 6.4 9.7 0.00 0.00 0.00 90 1014.0
20260502041408 5 242 6.4 6.4 0.00 0.00 0.00 90 1014.3
20260502040905 5 247 4.8 4.8 0.00 0.00 0.00 90 1014.2
20260502040401 5 288 3.2 3.2 0.00 0.00 0.00 90 1014.1
20260502035857 5 282 4.8 4.8 0.00 0.97 0.97 89 1014.1
20260502035354 5 278 4.8 6.4 0.00 0.97 0.97 89 1014.1
20260502034851 5 227 6.4 6.4 0.00 0.97 0.97 89 1014.0
20260502034350 5 318 3.2 4.8 0.00 0.97 0.97 89 1014.2
20260502033848 5 254 3.2 4.8 0.00 0.97 0.97 89 1014.3
20260502033345 5 258 6.4 6.4 0.00 0.97 0.97 89 1014.1
20260502032842 5 257 6.4 6.4 0.00 0.97 0.97 89 1014.2
20260502032338 5 253 6.4 6.4 0.00 0.97 0.97 89 1014.3
20260502031836 5 232 4.8 4.8 0.00 0.97 0.97 90 1014.2
20260502031334 5 225 3.2 4.8 0.00 0.97 0.97 90 1014.2
20260502030832 5 264 8.0 9.7 0.00 0.97 0.97 90 1014.1
20260502030330 5 269 6.4 6.4 0.00 0.97 0.97 90 1014.0
20260502025826 5 255 3.2 4.8 0.00 0.97 0.97 90 1014.2
20260502025324 5 254 4.8 4.8 0.00 0.97 0.97 90 1014.0
20260502024822 5 242 3.2 4.8 0.00 0.97 0.97 91 1014.0
20260502024320 5 251 3.2 4.8 0.00 0.97 0.97 91 1014.0
20260502023817 5 203 1.6 3.2 0.00 0.97 0.97 91 1013.8
20260502023315 5 172 1.6 3.2 0.00 0.97 0.97 90 1013.8
20260502022813 5 209 3.2 3.2 0.00 0.97 0.97 90 1013.7
20260502022309 5 220 1.6 1.6 0.00 0.97 0.97 90 1013.8
20260502021806 5 279 3.2 4.8 0.00 0.97 0.97 90 1013.8
20260502021303 5 250 3.2 4.8 0.00 0.97 0.97 90 1013.7
20260502020800 5 224 3.2 3.2 0.00 0.97 0.97 90 1013.6
20260502020257 5 196 3.2 3.2 0.00 0.97 0.97 90 1013.5
20260502015755 5 266 4.8 4.8 0.00 0.97 0.97 89 1013.7
20260502015251 5 179 3.2 3.2 0.00 0.97 0.97 89 1013.8
20260502014749 6 237 4.8 4.8 0.00 0.97 0.97 88 1013.6
20260502014245 6 220 4.8 4.8 0.00 0.97 0.97 88 1013.5
20260502013742 6 227 3.2 4.8 0.00 0.97 0.97 87 1013.4
20260502013237 6 269 4.8 6.4 0.00 0.97 0.97 87 1013.6
20260502012734 6 255 4.8 4.8 0.00 0.97 0.97 87 1013.3
20260502012232 6 300 8.0 9.7 0.00 0.97 0.97 87 1013.3
20260502011729 6 265 6.4 9.7 0.00 0.97 0.97 87 1013.4
20260502011225 6 283 8.0 9.7 0.00 0.97 0.97 88 1013.3
20260502010723 6 301 4.8 4.8 0.00 0.97 0.97 88 1013.3
20260502010218 6 297 3.2 3.2 0.00 0.97 0.97 89 1013.2
20260502005716 6 339 3.2 3.2 0.00 0.97 0.97 88 1013.2
20260502005214 6 308 3.2 3.2 0.00 0.97 0.97 88 1013.1
20260502004710 6 290 3.2 4.8 0.00 0.97 0.97 88 1013.3
20260502004206 6 261 4.8 6.4 0.00 0.97 0.97 88 1013.4
20260502003704 6 283 3.2 3.2 0.00 0.97 0.97 89 1013.1
20260502003202 6 284 3.2 3.2 0.00 0.97 0.97 88 1013.2
20260502002657 5 1 0.0 0.0 0.00 0.97 0.97 89 1013.1
20260502002155 5 348 0.0 0.0 0.00 0.97 0.97 89 1012.9
20260502001652 5 352 0.0 0.0 0.00 0.97 0.97 89 1013.2
20260502001150 5 332 1.6 1.6 0.00 0.97 0.97 89 1013.0
20260502000647 5 297 3.2 3.2 0.00 0.97 0.97 89 1012.9
20260502000145 5 16 0.0 0.0 0.00 0.97 0.97 89 1012.8
20260501235641 5 11 0.0 0.0 0.00 0.97 0.97 90 1012.5
20260501235137 5 53 0.0 0.0 0.00 0.97 0.97 90 1012.8
20260501234632 5 52 0.0 0.0 0.00 0.97 0.97 89 1012.3
20260501234130 5 342 3.2 3.2 0.00 0.97 0.97 89 1012.4